OBJECT C, 60205

Orbit data source: Space-Track

You're viewing an Uncataloged Satellite

Recently launched and/or uncataloged satellites may have evolving metadata. Metadata may include but not limited to: Owner, Maufacturer, Bus, Motor, and Mission.

OBJECT C, 60205 is a satellite owned by Teachers in Space (US) in SSO that was launched on Thu, 04 Jul 2024 UTC via an FIREFLY ALPHA launch vehicle from the Air Force Western Test Range (AFWTR). Unknown objects in Earth's orbit typically refer to objects detected orbiting the Earth but have not yet been identified or cataloged. These objects could be anything from previously untracked satellites, spent rocket stages, debris from satellite collisions, or even natural meteoroids temporarily captured by Earth's gravity.

Loading next visibility...
Identifier
60205, 2024-125C
Orbit
SSO
Last TLE update
8 hours ago
Origin
Flag of USTIS (US)
Manufacturer
Quub
Mission
Operational spacecraft
Bus & Motor
CUBESAT 3U, Unknown motor
Mass
3 kg wet, 3 kg dry
Launch date (UTC)
2024-07-04 (1 year ago)
Launch vehicle
FIREFLY ALPHA
Launch site
Air Force Western Test Range (AFWTR)
Object type
Unknown
Shape & HBR
Unknown
Radar Cross Section
Small (<0.1 m²)

Expand to show TLE details & history

TLE from 8 hours ago
0 OBJECT C
1 60205U 24125C   25187.59242388  .00023468  00000-0  51996-3 0  9997
2 60205  97.2746  40.8319 0014483  30.9188 329.2910 15.43658285 56233
Epoch: 2025-07-06T14:13Z
TLE epoch observation values (Epoch: 2025-07-06T14:13:05.423Z)
Latitude
-0.00001°
Longitude
-97.25459°
Altitude
429.967 km
Speed
7.658 km/s
True Right ascension
02h 43m 19s
True Declination
0° 00' 00"
Sunlit
Object was in daylight at epoch
Visualization orbit readout
Latitude
32.23287°
Longitude
87.68691°
Altitude
444.176 km
Speed
7.646 km/s
Apparent Right ascension
18h 21m 53s
Apparent Declination
-4° 23' 36"
Sunlit
Object is in daylight
Visualization observer readout
Local Sidereal Time
10:38:08
Azimuth
76.149° E
Elevation
-22.559°
Doppler factor
1
Orbital elements
Apogee altitude
442.115 km
Perigee altitude
422.389 km
Semi-major axis
6,810.389 km
Eccentricity
0.00145
Inclination
97.2746°
RAAN
40.8319°
Arg. of periapsis
30.9188°
True anomaly
Unknown
Mean anomaly
329.291°
Eccentric anomaly
Unknown
Mean motion
3.86176 °/min
Orbital period
93.22 mins
BSTAR
0.00051996
Loading maneuver chart data...
Loading SW <> Apogee altitude chart data...
Loading historical data...
Loading historical data...
Loading historical data...
Loading historical data...
Loading historical data...
Loading historical data...
Loading historical data...

OBJECT C Visibility forecast

Observer location: undefined°, undefined°

Span
Click to sort rows by Start time (UTC) header in descending order
Start Az.
Max El. time (UTC)
Max El. Az.
Max El.
End time (UTC)
End Az.
6 mins2025-07-07 03:12:58.847Z6.448° NNE2025-07-07 03:15:58.847Z270.262° WNW43.237°2025-07-07 03:18:58.847Z199.924° SSW
|